Tracking 28096 objects as of 29-Sep-2023
HD Live streaming from Space Station
objects crossing your sky now

STARLINK-6332

Track STARLINK-6332 now!
10-day predictions
STARLINK-6332 is classified as:


NORAD ID: 57339
Int'l Code: 2023-099M
Perigee: 565.3 km
Apogee: 567.1 km
Inclination: 43.0 °
Period: 95.8 minutes
Semi major axis: 6937 km
RCS: Unknown
Launch date: July 16, 2023
Source: United States (US)
Launch site: AIR FORCE EASTERN TEST RANGE (AFETR)
Your satellite tracking list
Your tracking list is empty




NASA's NSSDC Master Catalog

Two Line Element Set (TLE):
1 57339U 23099M   23271.81531483  .00001397  00000-0  11845-3 0  9990
2 57339  43.0035  60.7225 0001309 277.5327  82.5367 15.02542878 11805
Source of the keplerian elements: AFSPC